カタログに戻る

THOR ABLESTAR DEB

運用中LEO
NORAD 1942·DEBRIS·🇺🇸 United States

打ち上げ Jun 29, 1961 から Cape Canaveral Space Force Station

Loading…

次のパス (今後24時間)

TLE

最新Source: Space-Track

元期: Sep 14, 2026, 11:55 UTC

1 01942U 61015HS  26257.49686725  .00000200  00000-0  53022-3 0  9995
2 01942  67.2658 172.5418 0341438 188.4464 349.5295 13.13455736128543

AllMySatでTHOR ABLESTAR DEBをリアルタイム追跡

Download on the App Store